Location: Bruderhein
(53.8035°N, 112.9265°W)
Time: 10:27:03
(UTC+00:00)

DIWATA 2B (PO-101) - Pass Details

Date: 31 March 2023
Orbit: 581 x 593 km, 98.0° (Epoch: 29 May)

Event Time Altitude Azimuth Distance (km) Brightness Sun altitude
Exits shadow 11:20:09 11° 296° (WNW) 1,828 ? -15.7°
Drops below altitude 10° 11:20:37 10° 302° (WNW) 1,910 ? -15.6°
Sets 11:23:53 0° 330° (NNW) 2,818 ? -15.2°
